{"data":{"norad_id":65524,"intl_designator":"2025-200E","name":"STARLINK-35055","alt_names":[],"object_type":"PAYLOAD","status":"ACTIVE","operator":null,"country":"US","launch_date":"2025-09-06","launch_site_code":"AFWTR","launch_vehicle":null,"mission":null,"orbit_class":"UNKNOWN","rcs_meters":null,"size_class":null,"mass_kg":null,"dimensions":null,"purposes":["comms"],"wikipedia_slug":null,"has_3d_model":false,"image_url":null,"decayed_at":null,"tle_current":{"epoch":"2026-05-25T04:49:25.669920Z","epoch_age_seconds":67982,"freshness":"FRESH","line1":"1 65524U 25200E   26145.20099155  .00003960  00000+0  27828-3 0  9997","line2":"2 65524  97.4462 214.8439 0002373 142.9424 217.1968 15.05655648 40641","mean_motion":15.05655648,"eccentricity":0.0002373,"inclination_deg":97.4462,"raan_deg":214.8439,"arg_perigee_deg":142.9424,"mean_anomaly_deg":217.1968,"bstar":0.00027828,"rev_number":4064,"period_min":95.639398152744,"perigee_km":547.8499026174,"apogee_km":551.13775620904,"semimajor_km":6927.6308294132,"source":"CELESTRAK","updated_at":"2026-05-25T13:38:20.846886Z"}}}